Location: Shenandoah County Park
(38.9356°N, 78.4524°W)
Time: 05:27:05
(UTC-04:00)

Explorer 11/Cluster Stage 4 - Pass Details

Date: 23 February 2024
Orbit: 465 x 1220 km, 28.8° (Epoch: 12 April)

Event Time Altitude Azimuth Distance (km) Brightness Sun altitude
Rises 05:25:13 0° 260° (W) 3,792 - -18.3°
Reaches altitude 10° 05:28:35 10° 249° (WSW) 2,707 - -17.6°
Exits shadow 05:31:02 19° 232° (SW) 2,025 8.2 -17.1°
Maximum altitude 05:33:49 26° 195° (SSW) 1,610 8.0 -16.6°
Drops below altitude 10° 05:38:15 10° 140° (SE) 2,256 9.5 -15.7°
Sets 05:40:48 0° 127° (SE) 3,049 10.5 -15.2°
